DELTA 1 DEB, 42635

Orbit data source: Space-Track

DELTA 1 DEB, 42635 is space debris in LEO originally from a launch on Thu, 12 Jun 1975 UTC launched from the Air Force Western Test Range (AFWTR). Debris objects in space refer to the collection of defunct objects orbiting the Earth. Examples of debris include non-operational satellites, rocket bodies, and fragments generated from explosions, collisions, or faulty payload assembly.

Loading next visibility...
DELTA 1 DEB details
Identifier
42635, 1975-052LU
Orbit
LEO
Last TLE update9 hours ago
Origin
Flag of USGSFC (US)
ManufacturerUnknown
MissionSpacecraft
Bus & MotorUnknown
MassUnknown
Launch date (UTC)
1975-06-12 (50 years ago)
Launch vehicleUnknown
Launch site
Air Force Western Test Range (AFWTR)
Object type
Payload
Rocket body
Debris
Shape & HBRUnknown
Radar Cross SectionSmall (<0.1 m²)

Expand to show TLE details & history

TLE from 9 hours ago
0 DELTA 1 DEB
1 42635U 75052LU  24346.56007123  .00000282  00000-0  46072-3 0  9996
2 42635  99.7839 253.9567 0044170 225.1178 259.5008 13.56557525547072
Epoch: 2024-12-11T13:26Z
Definitive object data (Epoch: 2024-12-11T13:26:30.154Z)
Latitude54.76559°
Longitude165.63481°
Altitude1,063.305 km
Speed7.322 km/s
True Right ascension05h 52m 03s
True Declination54° 36' 36"
Sunlit
Object was in full shadow at TLE epoch
Visualization TLE readout
Latitude78.96535°
Longitude-146.45099°
Altitude1,081.969 km
Speed7.308 km/s
Apparent Right ascension08h 39m 53s
Apparent Declination27° 03' 55"
Sunlit
Object is in daylight
Visualization observer readout
Local Sidereal Time20:32:56
Azimuth358.319° N
Elevation-22.999°
Doppler factor1
Orbital elements
Apogee altitude1,078.316 km
Perigee altitude1,012.736 km
Semi-major axis7,423.663 km
Eccentricity0.004417
Inclination99.7839°
RAAN253.9567°
Arg. of periapsis225.1178°
True anomaly259.00363°
Mean anomaly259.5008°
Eccentric anomaly259.25216°
Mean motion3.39325 °/min
BSTAR0.00046072
Orbital period106.09 mins
Loading maneuver chart data...
Loading historical data...
Loading historical data...
Loading historical data...
Loading historical data...
Loading historical data...
Loading historical data...
Loading historical data...

DELTA 1 DEB Visibility forecast

Observer location: undefined°, undefined

Span
Click to sort rows by Start time (UTC) header in descending order
Start Az.
Max El. time (UTC)
Max El. Az.
Max El.
End time (UTC)
End Az.
6 mins2024-12-12 05:24:58.762Z63.715° ENE2024-12-12 05:27:58.762Z93.888° ESE14.535°2024-12-12 05:30:58.762Z122.689° SE
11 mins2024-12-12 07:07:58.762Z12.092° NNE2024-12-12 07:12:58.762Z282.859° WNW44.672°2024-12-12 07:18:58.762Z200.992° SSW
4 mins2024-12-12 08:54:58.762Z321.084° NNW2024-12-12 08:56:58.762Z300.944° NW13.633°2024-12-12 08:58:58.762Z281.62° WNW
10 mins2024-12-12 17:16:58.762Z134.147° SE2024-12-12 17:21:58.762Z60.807° ENE36.51°2024-12-12 17:26:58.762Z359.635° N
10 mins2024-12-12 19:01:58.762Z212.364° SW2024-12-12 19:06:58.762Z271.847° WNW25.663°2024-12-12 19:11:58.762Z322.173° NNW
|